Hourly Data Report for May 10, 2021

WESTERN HEAD
NOVA SCOTIA
Current Station Operator: ECCC - MSC

43°59'24.070" N
64°39'51.008" W
10.10 m
8206240
71411
WWE

Download Data

Hourly Data (May 2021)
Hourly Data Report for May 10, 2021
TIME
LST
Temp Definition
°C
Dew Point Definition
°C
Rel Hum Definition
%
Precip. Amount Definition
mm

Wind Dir Definition
10's deg

Wind Spd Definition
km/h
Visibility Definition
km
Stn Press Definition
kPa
Hmdx Definition


Wind Chill Definition


Weather Definition


00:00 7.6 4.0 78 0.0 24 12   101.04     LegendNANA
01:00 6.9 5.0 88 0.0 23 13   100.98     LegendNANA
02:00 6.2 5.4 94 0.0 22 13   100.97     LegendNANA
03:00 6.3 5.6 95 0.0 22 14   100.96     LegendNANA
04:00 5.5 5.1 97 0.0 23 14   100.89     LegendNANA
05:00 5.5 5.4 99 0.0 20 6   100.86     LegendNANA
06:00 6.1 6.0 99 0.0 21 10   100.88     LegendNANA
07:00 6.2 6.2 100 0.0 22 8   100.86     LegendNANA
08:00 6.4 6.4 100 0.0 20 15   100.95     LegendNANA
09:00 6.6 6.6 100 0.0 21 14   100.94     LegendNANA
10:00 7.3 7.3 100 0.3 24 13   100.96     LegendNANA
11:00 8.6 8.6 100 0.0 20 10   100.96     LegendNANA
12:00 9.7 9.4 98 0.0 18 11   100.90     LegendNANA
13:00 9.1 7.6 90 0.0 18 12   100.82     LegendNANA
14:00 9.6 7.8 88 0.0 19 9   100.79     LegendNANA
15:00 10.4 7.8 84 0.0 18 12   100.81     LegendNANA
16:00 10.0 7.2 83 0.0 18 13   100.84     LegendNANA
17:00 9.8 6.9 82 0.0 22 9   100.84     LegendNANA
18:00 9.2 6.5 83 0.0 22 8   100.82     LegendNANA
19:00 7.5 6.4 92 0.0 22 14   100.89     LegendNANA
20:00 6.4 5.8 96 0.0 22 12   100.95     LegendNANA
21:00 5.6 5.2 97 0.0 24 12   101.02     LegendNANA
22:00 5.4 4.8 96 0.0 22 7   101.10     LegendNANA
23:00 5.8 5.5 98 0.0 27 9   101.08     LegendNANA

Notes on Data Quality.

Legend

  • E = Estimated
  • M = Missing
  • NA = Not Available*
  • [empty] = Indicates an unobserved value
Date modified: